Weather in Mikhaylovka

Russia / Primorsky Krai     44°17′01″N   133°51′28″E
temp.,
°C
wind,
m/s
gust,
m/s
humid.,
%
clouds,
%
prec.,
mm/h
press.,
hPa
HPBL,
m
6 march, sat
sat601:00−15nnw51086100 0.1 10291189
04:00−18nnw41084100 0.2 10321168
07:00−19nnw5987100 0.1 10351106
10:00−18nw4778100 0.1 1036981
13:00−14nw466688 0.0 10351037
16:00−12nw466344 0.0 10331087
19:00−16nw11843 0.0 103420
22:00−18s22912 0.0 103524
7 march, sun
sun701:00−18sse22920 0.0 103428
04:00−19sse22910 0.0 103430
07:00−19sse229045 0.0 103225
10:00−12sse126858 0.0 1031221
13:00−5wsw36565 0.0 1028981
16:00−3w37592 0.0 1025950
19:00−8w12800 0.0 102421
22:00−10ssw12870 0.0 102621
8 march, mon
mon801:00−12wsw11920 0.0 102621
04:00−11wsw019740 0.1 102740
07:00−12sw119898 0.1 102921
10:00−8w138499 0.3 1030450
13:00−4wnw236697 0.0 1029876
16:00−2wsw226375 0.0 1027841
19:00−7s11800 0.0 102721
22:00−9sse22870 0.0 102722
9 march, tue
tue901:00−10sse22863 0.0 102526
04:00−10sse22832 0.0 102428
07:00−10sse23830 0.0 102143
10:00−3s36770 0.0 1019304
13:00+4sw6116737 0.0 10161170
16:00+5wsw6126353 0.0 10131517
19:000w31099100 1.3 1013553
22:00−3wnw41372100 3.8 10161343
10 march, wed
wed1001:00−5nw71380100 0.4 10181244
04:00−9w398763 0.4 1021587
07:00−9wnw3138651 0.0 1023870
10:00−6nw6116730 0.0 10251160
13:00−3nw59570 0.0 10251229
16:00−2nw47530 0.0 10251257
19:00−6nw11720 0.0 102621
22:00−8sse22792 0.0 102821